FW5156 Weather Reports


Display with metric or nautical units.
time (UTC)temp
F
wind
direction
speed
MPH
gust
MPH
rain 1hr
in
rain 24hr
in
rain mn
in
humidity
%
barometer
mb
20200706160339 84 49 0.0 0.0 0.00 0.00 0.00 74 1018.4
20200706155845 84 138 0.0 0.0 0.00 0.00 0.00 73 1018.4
20200706155334 84 97 0.0 0.0 0.00 0.00 0.00 72 1018.3
20200706154839 84 101 0.0 0.0 0.00 0.00 0.00 71 1018.4
20200706154330 84 101 0.0 0.0 0.00 0.00 0.00 70 1018.5
20200706153839 84 88 0.0 0.0 0.00 0.00 0.00 71 1018.5
20200706153330 84 96 0.0 0.0 0.00 0.00 0.00 74 1018.6
20200706152834 84 258 0.0 0.0 0.00 0.00 0.00 72 1018.6
20200706152341 83 261 0.0 0.0 0.00 0.00 0.00 73 1018.5
20200706151827 83 250 0.0 0.0 0.00 0.00 0.00 74 1018.5
20200706151335 83 91 0.0 0.0 0.00 0.00 0.00 76 1018.5
20200706150840 83 91 0.0 0.0 0.00 0.00 0.00 75 1018.4
20200706150329 83 225 0.0 0.0 0.00 0.00 0.00 73 1018.5
20200706145835 83 122 0.0 0.0 0.00 0.00 0.00 73 1018.5
20200706145341 83 228 0.0 0.0 0.00 0.00 0.00 74 1018.4
20200706144827 83 113 0.0 0.0 0.00 0.00 0.00 74 1018.4
20200706144334 83 105 0.0 0.0 0.00 0.00 0.00 74 1018.5
20200706143841 83 302 0.0 0.0 0.00 0.00 0.00 74 1018.4
20200706143330 83 131 0.0 0.0 0.00 0.00 0.00 74 1018.3
20200706142839 82 271 0.0 0.0 0.00 0.00 0.00 74 1018.2
20200706142330 82 229 0.0 0.0 0.00 0.00 0.00 76 1018.1
20200706141835 82 106 0.0 0.0 0.00 0.00 0.00 78 1018.0
20200706141343 82 115 0.0 0.0 0.00 0.00 0.00 79 1018.0
20200706140834 81 104 0.0 0.0 0.00 0.00 0.00 80 1018.0
20200706140338 81 114 0.0 0.0 0.00 0.00 0.00 80 1017.9
20200706135844 80 114 0.0 0.0 0.00 0.00 0.00 82 1017.8
20200706135330 80 114 0.0 0.0 0.00 0.00 0.00 84 1017.8
20200706134836 80 88 0.0 0.0 0.00 0.00 0.00 85 1017.8
20200706134343 79 88 0.0 0.0 0.00 0.00 0.00 85 1017.7
20200706133830 79 88 0.0 0.0 0.00 0.00 0.00 86 1017.6
20200706133339 78 88 0.0 0.0 0.00 0.00 0.00 87 1017.6
20200706132828 77 88 0.0 0.0 0.00 0.00 0.00 88 1017.5
20200706132335 77 325 0.0 0.0 0.00 0.00 0.00 89 1017.5
20200706131845 76 325 0.0 0.0 0.00 0.00 0.00 90 1017.5
20200706131332 76 325 0.0 0.0 0.00 0.00 0.00 90 1017.3
20200706130839 76 325 0.0 0.0 0.00 0.00 0.00 91 1017.3
20200706130328 75 325 0.0 0.0 0.00 0.00 0.00 92 1017.2
20200706125834 75 325 0.0 0.0 0.00 0.00 0.00 92 1017.1
20200706125341 74 325 0.0 0.0 0.00 0.00 0.00 92 1017.1
20200706124828 74 325 0.0 0.0 0.00 0.00 0.00 93 1017.2
20200706124335 74 325 0.0 0.0 0.00 0.00 0.00 93 1017.2
20200706123841 74 325 0.0 0.0 0.00 0.00 0.00 93 1017.2
20200706123333 73 325 0.0 0.0 0.00 0.00 0.00 94 1017.2
20200706122838 73 90 0.0 0.0 0.00 0.00 0.00 95 1017.2
20200706122346 73 90 0.0 0.0 0.00 0.00 0.00 95 1017.2
20200706121832 72 90 0.0 0.0 0.00 0.00 0.00 96 1017.3
20200706121341 72 90 0.0 0.0 0.00 0.00 0.00 95 1017.2
20200706120828 72 90 0.0 0.0 0.00 0.00 0.00 96 1017.2
20200706120336 72 90 0.0 0.0 0.00 0.00 0.00 96 1017.2
20200706115842 72 90 0.0 0.0 0.00 0.00 0.00 96 1017.1
20200706115329 72 90 0.0 0.0 0.00 0.00 0.00 96 1017.1
20200706114836 71 90 0.0 0.0 0.00 0.00 0.00 96 1017.1
20200706114349 71 90 0.0 0.0 0.00 0.00 0.00 96 1017.1
20200706113833 71 90 0.0 0.0 0.00 0.00 0.00 96 1017.1
20200706113341 71 90 0.0 0.0 0.00 0.00 0.00 95 1017.1
20200706112829 71 90 0.0 0.0 0.00 0.00 0.00 95 1017.4
20200706112334 71 90 0.0 0.0 0.00 0.00 0.00 95 1017.3
20200706111840 72 90 0.0 0.0 0.00 0.00 0.00 95 1017.4
20200706111330 72 242 0.0 0.0 0.00 0.00 0.00 95 1017.4
20200706110841 72 242 0.0 0.0 0.00 0.00 0.00 95 1017.0
20200706110346 72 242 0.0 0.0 0.00 0.00 0.00 96 1016.8
20200706105832 72 242 0.0 0.0 0.00 0.00 0.00 95 1016.8
20200706105337 71 242 0.0 0.0 0.00 0.00 0.00 95 1016.8
20200706104844 72 242 0.0 0.0 0.00 0.00 0.00 95 1016.8
20200706104333 71 242 0.0 0.0 0.00 0.00 0.00 95 1016.8
20200706103840 71 242 0.0 0.0 0.00 0.00 0.00 95 1016.7
20200706103333 72 242 0.0 0.0 0.00 0.00 0.00 95 1016.7
20200706102839 72 242 0.0 0.0 0.00 0.00 0.00 95 1016.6
20200706102345 72 242 0.0 0.0 0.00 0.00 0.00 95 1016.5
20200706101832 72 242 0.0 0.0 0.00 0.00 0.00 95 1016.4
20200706101342 72 242 0.0 0.0 0.00 0.00 0.00 95 1016.4
20200706100829 71 242 0.0 0.0 0.00 0.00 0.00 95 1016.3
20200706100343 71 242 0.0 0.0 0.00 0.00 0.00 94 1016.2
20200706095844 72 242 0.0 0.0 0.00 0.00 0.00 94 1016.2
20200706095330 72 242 0.0 0.0 0.00 0.00 0.00 94 1016.2
20200706094837 72 242 0.0 0.0 0.00 0.00 0.00 94 1016.3
20200706094327 72 242 0.0 0.0 0.00 0.00 0.00 94 1016.3
20200706093834 72 242 0.0 0.0 0.00 0.00 0.00 94 1016.2
20200706093343 72 242 0.0 0.0 0.00 0.00 0.00 94 1016.2
20200706092832 72 242 0.0 0.0 0.00 0.00 0.00 94 1016.2
20200706092339 72 242 0.0 0.0 0.00 0.00 0.00 94 1016.2
20200706091826 72 242 0.0 0.0 0.00 0.00 0.00 93 1016.2
20200706091334 72 242 0.0 0.0 0.00 0.00 0.00 93 1016.2
20200706090844 72 242 0.0 0.0 0.00 0.00 0.00 93 1016.2
20200706090332 72 242 0.0 0.0 0.00 0.00 0.00 93 1016.1
20200706085836 72 242 0.0 0.0 0.00 0.00 0.00 93 1016.0
20200706085342 72 242 0.0 0.0 0.00 0.00 0.00 93 1015.9
20200706084829 72 242 0.0 0.0 0.00 0.00 0.00 92 1016.0
20200706084335 73 242 0.0 0.0 0.00 0.00 0.00 92 1016.0
20200706083843 73 242 0.0 0.0 0.00 0.00 0.00 92 1016.0
20200706083333 73 242 0.0 0.0 0.00 0.00 0.00 92 1015.9
20200706082838 73 242 0.0 0.0 0.00 0.00 0.00 92 1015.9
20200706082344 73 242 0.0 0.0 0.00 0.00 0.00 92 1016.0
20200706081837 73 242 0.0 0.0 0.00 0.00 0.00 92 1016.0
20200706081336 73 242 0.0 0.0 0.00 0.00 0.00 92 1016.0
20200706080823 73 242 0.0 0.0 0.00 0.00 0.00 91 1016.0
20200706080336 73 242 0.0 0.0 0.00 0.00 0.00 91 1016.1
20200706075841 73 242 0.0 0.0 0.00 0.00 0.00 91 1016.0
20200706075327 73 242 0.0 0.0 0.00 0.00 0.00 91 1016.0
20200706074838 73 242 0.0 0.0 0.00 0.00 0.00 92 1016.0
20200706074331 73 242 0.0 0.0 0.00 0.00 0.00 92 1016.0
20200706073842 73 242 0.0 0.0 0.00 0.00 0.00 92 1016.1
20200706073334 73 242 0.0 0.0 0.00 0.00 0.00 92 1016.1
20200706072839 73 242 0.0 0.0 0.00 0.00 0.00 92 1016.1
20200706072346 73 242 0.0 0.0 0.00 0.00 0.00 91 1016.1
20200706071832 73 242 0.0 0.0 0.00 0.00 0.00 91 1016.1
20200706071339 73 242 0.0 0.0 0.00 0.00 0.00 91 1015.9
20200706070826 73 242 0.0 0.0 0.00 0.00 0.00 91 1016.0
20200706070334 73 242 0.0 0.0 0.00 0.00 0.00 91 1016.0
20200706065840 73 242 0.0 0.0 0.00 0.00 0.00 91 1016.0
20200706065327 73 242 0.0 0.0 0.00 0.00 0.00 91 1016.0
20200706064834 73 242 0.0 0.0 0.00 0.00 0.00 91 1016.1
20200706064341 73 242 0.0 0.0 0.00 0.00 0.00 91 1016.1
20200706063826 74 242 0.0 0.0 0.00 0.00 0.00 91 1016.3
20200706063336 74 242 0.0 0.0 0.00 0.00 0.00 90 1016.3
20200706062842 74 242 0.0 0.0 0.00 0.00 0.00 89 1016.3
20200706062329 74 242 0.0 0.0 0.00 0.00 0.00 89 1016.1
20200706061835 75 242 0.0 0.0 0.00 0.00 0.00 89 1016.1
20200706061342 75 242 0.0 0.0 0.00 0.00 0.00 88 1016.1
20200706060836 75 242 0.0 0.0 0.00 0.00 0.00 87 1016.1
20200706060344 75 242 0.0 0.0 0.00 0.00 0.00 86 1016.0
20200706055829 76 242 0.0 0.0 0.00 0.00 0.00 85 1016.2
20200706055337 76 242 0.0 0.0 0.00 0.00 0.00 85 1016.1
20200706054842 76 242 0.0 0.0 0.00 0.00 0.00 85 1016.2
20200706054329 76 242 0.0 0.0 0.00 0.00 0.00 84 1016.2
20200706053839 76 242 0.0 0.0 0.00 0.00 0.00 84 1016.2
20200706053330 77 242 0.0 0.0 0.00 0.00 0.00 84 1016.3
20200706052837 77 242 0.0 0.0 0.00 0.00 0.00 84 1016.3
20200706052342 77 242 0.0 0.0 0.00 0.00 0.00 84 1016.4
20200706051831 77 242 0.0 0.0 0.00 0.00 0.00 84 1016.3
20200706051338 77 242 0.0 0.0 0.00 0.00 0.00 85 1016.3
20200706050845 77 242 0.0 0.0 0.00 0.00 0.00 83 1016.4
20200706050337 77 242 0.0 0.0 0.00 0.00 0.00 83 1016.4
20200706045826 77 242 0.0 0.0 0.00 0.00 0.00 83 1016.3
20200706045334 77 242 0.0 0.0 0.00 0.00 0.00 83 1016.3
20200706044840 77 242 0.0 0.0 0.00 0.00 0.00 83 1016.3
20200706044327 77 242 0.0 0.0 0.00 0.00 0.00 82 1016.2
20200706043838 77 242 0.0 0.0 0.00 0.00 0.00 82 1016.3
20200706043346 77 242 0.0 0.0 0.00 0.00 0.00 82 1016.2
20200706042831 77 242 0.0 0.0 0.00 0.00 0.00 82 1016.2
20200706042338 77 242 0.0 0.0 0.00 0.00 0.00 82 1016.2
20200706041845 77 242 0.0 0.0 0.00 0.00 0.00 81 1016.1
20200706041332 78 242 0.0 0.0 0.00 0.00 0.00 81 1016.1
20200706040842 78 242 0.0 0.0 0.00 0.00 0.00 81 1016.2
20200706040328 78 242 0.0 0.0 0.00 0.00 0.00 81 1016.3
20200706035828 78 242 0.0 0.0 0.00 0.00 0.00 80 1016.3
20200706035342 78 242 0.0 0.0 0.00 0.00 0.00 80 1016.4
20200706034845 78 242 0.0 0.0 0.00 0.00 0.00 80 1016.4
20200706034332 78 242 0.0 0.0 0.00 0.00 0.00 79 1016.3
20200706033837 78 242 0.0 0.0 0.00 0.00 0.00 79 1016.4
20200706033346 78 242 0.0 0.0 0.00 0.00 0.00 79 1016.3
20200706032830 78 242 0.0 0.0 0.00 0.00 0.00 79 1016.2
20200706032337 78 242 0.0 0.0 0.00 0.00 0.00 79 1016.2
20200706031827 78 242 0.0 0.0 0.00 0.00 0.00 79 1016.2
20200706031336 78 242 0.0 0.0 0.00 0.00 0.00 78 1016.2
20200706030843 78 242 0.0 0.0 0.00 0.00 0.00 78 1016.1
20200706030332 78 242 0.0 0.0 0.00 0.00 0.00 78 1016.0
20200706025839 78 242 0.0 0.0 0.00 0.00 0.00 78 1015.9
20200706025329 78 242 0.0 0.0 0.00 0.00 0.00 77 1015.9
20200706024835 78 242 0.0 0.0 0.00 0.00 0.00 77 1015.8
20200706024342 78 242 0.0 0.0 0.00 0.00 0.00 78 1015.8
20200706023828 78 242 0.0 0.0 0.00 0.00 0.00 78 1015.9
20200706023340 78 242 0.0 0.0 0.00 0.00 0.00 78 1015.9
20200706022845 78 242 0.0 0.0 0.00 0.00 0.00 79 1015.9
20200706022332 78 242 0.0 0.0 0.00 0.00 0.00 78 1015.8
20200706021840 78 242 0.0 0.0 0.00 0.00 0.00 78 1015.7
20200706021340 78 242 0.0 0.0 0.00 0.00 0.00 78 1015.7
20200706020827 79 242 0.0 0.0 0.00 0.00 0.00 78 1015.5
20200706020336 79 242 0.0 0.0 0.00 0.00 0.00 79 1015.4
20200706015826 79 242 0.0 0.0 0.00 0.00 0.00 79 1015.3
20200706015332 79 242 0.0 0.0 0.00 0.00 0.00 78 1015.4
20200706014839 79 242 0.0 0.0 0.00 0.00 0.00 78 1015.3
20200706014346 79 242 0.0 0.0 0.00 0.00 0.00 78 1015.3
20200706013833 79 242 0.0 0.0 0.00 0.00 0.00 78 1015.3
20200706013342 79 242 0.0 0.0 0.00 0.00 0.00 78 1015.3
20200706012828 79 242 0.0 0.0 0.00 0.00 0.00 78 1015.3
20200706012334 80 242 0.0 0.0 0.00 0.00 0.00 77 1015.3
20200706011841 80 242 0.0 0.0 0.00 0.00 0.00 77 1015.3
20200706011328 80 242 0.0 0.0 0.00 0.00 0.00 77 1015.4
20200706010835 80 242 0.0 0.0 0.00 0.00 0.00 77 1015.3
20200706010344 80 252 0.0 0.0 0.00 0.00 0.00 77 1015.4
20200706005829 81 252 0.0 0.0 0.00 0.00 0.00 76 1015.4
20200706005340 81 252 0.0 0.0 0.00 0.00 0.00 76 1015.5
20200706004843 81 252 0.0 0.0 0.00 0.00 0.00 75 1015.4
20200706004329 81 252 0.0 0.0 0.00 0.00 0.00 75 1015.3
20200706003835 82 156 0.0 0.0 0.00 0.00 0.00 75 1015.3
20200706003344 82 156 0.0 0.0 0.00 0.00 0.00 75 1015.2
20200706002830 82 148 0.0 0.0 0.00 0.00 0.00 75 1015.2
20200706002340 82 127 0.0 0.0 0.00 0.00 0.00 75 1015.2
20200706001843 82 76 0.0 0.0 0.00 0.00 0.00 74 1015.1
20200706001331 83 77 0.0 0.0 0.00 0.00 0.00 74 1015.0
20200706000841 83 77 0.0 0.0 0.00 0.00 0.00 73 1015.0
20200706000330 83 225 0.0 0.0 0.00 0.00 0.00 72 1014.9
20200705235839 84 5 0.0 0.0 0.00 0.00 0.00 71 1014.9
20200705235346 84 15 0.0 0.0 0.00 0.00 0.00 71 1014.8
20200705234833 85 15 0.0 0.0 0.00 0.00 0.00 70 1014.8
20200705234339 85 14 0.0 0.0 0.00 0.00 0.00 70 1014.7
20200705233845 85 15 0.0 0.0 0.00 0.00 0.00 68 1014.7
20200705233334 86 17 0.0 0.0 0.00 0.00 0.00 67 1014.7
20200705232841 86 117 0.0 0.0 0.00 0.00 0.00 67 1014.8
20200705232329 87 117 0.0 0.0 0.00 0.00 0.00 66 1014.7
20200705231834 87 117 0.0 0.0 0.00 0.00 0.00 65 1014.5
20200705231341 87 117 0.0 0.0 0.00 0.00 0.00 64 1014.5
20200705230831 88 117 0.0 0.0 0.00 0.00 0.00 63 1014.4
20200705230343 88 117 0.0 0.0 0.00 0.00 0.00 61 1014.4
20200705225831 88 128 0.0 0.0 0.00 0.00 0.00 62 1014.4
20200705225338 88 128 0.0 0.0 0.00 0.00 0.00 63 1014.3
20200705224845 88 128 0.0 0.0 0.00 0.00 0.00 61 1014.4
20200705224332 88 125 0.0 0.0 0.00 0.00 0.00 60 1014.4
20200705223839 88 125 0.0 0.0 0.00 0.00 0.00 62 1014.4
20200705223349 88 132 0.0 0.0 0.00 0.00 0.00 62 1014.3
20200705222832 88 135 0.0 0.0 0.00 0.00 0.00 61 1014.4
20200705222340 88 270 0.0 0.0 0.00 0.00 0.00 63 1014.4
20200705221845 89 80 0.0 0.0 0.00 0.00 0.00 62 1014.5
20200705221331 88 80 0.0 0.0 0.00 0.00 0.00 60 1014.6
20200705220840 88 136 0.0 0.0 0.00 0.00 0.00 62 1014.6
20200705220329 88 130 0.0 0.0 0.00 0.00 0.00 63 1014.5
20200705215835 88 160 0.0 0.0 0.00 0.00 0.00 63 1014.7
20200705215342 89 160 0.0 0.0 0.00 0.00 0.00 63 1014.7
20200705214829 89 160 0.0 0.0 0.00 0.00 0.00 62 1014.7
20200705214339 89 160 0.0 0.0 0.00 0.00 0.00 63 1014.7
20200705213846 89 42 0.0 0.0 0.00 0.00 0.00 59 1014.7
20200705213335 89 44 0.0 0.0 0.00 0.00 0.00 58 1014.8
20200705212841 90 117 0.0 0.0 0.00 0.00 0.00 55 1014.8
20200705212329 91 128 0.0 0.0 0.00 0.00 0.00 52 1014.9
20200705211837 91 109 0.0 0.0 0.00 0.00 0.00 51 1014.8
20200705211330 92 67 0.0 0.0 0.00 0.00 0.00 48 1014.7
20200705210839 91 67 0.0 0.0 0.00 0.00 0.00 48 1014.7
20200705210328 91 67 0.0 0.0 0.00 0.00 0.00 52 1014.8
20200705205833 91 67 0.0 0.0 0.00 0.00 0.00 46 1014.9
20200705205340 92 67 0.0 0.0 0.00 0.00 0.00 52 1014.9
20200705204830 93 67 0.0 0.0 0.00 0.00 0.00 46 1015.0
20200705204337 93 329 0.0 0.0 0.00 0.00 0.00 47 1015.0
20200705203845 94 329 0.0 0.0 0.00 0.00 0.00 46 1014.9
20200705203331 93 329 0.0 0.0 0.00 0.00 0.00 46 1015.1
20200705202839 93 329 0.0 0.0 0.00 0.00 0.00 49 1015.2
20200705202345 93 329 0.0 0.0 0.00 0.00 0.00 48 1015.3
20200705201832 92 329 0.0 0.0 0.00 0.00 0.00 48 1015.3
20200705201339 92 329 0.0 0.0 0.00 0.00 0.00 44 1015.2
20200705200831 92 329 0.0 0.0 0.00 0.00 0.00 44 1015.2
20200705200341 92 329 0.0 0.0 0.00 0.00 0.00 44 1015.4
20200705195827 92 190 0.0 0.0 0.00 0.00 0.00 53 1015.5
20200705195334 92 190 0.0 0.0 0.00 0.00 0.00 44 1015.5
20200705194841 92 189 0.0 0.0 0.00 0.00 0.00 48 1015.5
20200705194327 92 269 0.0 0.0 0.00 0.00 0.00 45 1015.5
20200705193833 91 269 0.0 0.0 0.00 0.00 0.00 43 1015.6
20200705193342 91 269 0.0 0.0 0.00 0.00 0.00 45 1015.6
20200705192831 91 269 0.0 0.0 0.00 0.00 0.00 46 1015.6
20200705192336 92 269 0.0 0.0 0.00 0.00 0.00 49 1015.7
20200705191842 92 269 0.0 0.0 0.00 0.00 0.00 45 1015.7
20200705191326 91 269 0.0 0.0 0.00 0.00 0.00 46 1015.8
20200705190833 91 269 0.0 0.0 0.00 0.00 0.00 47 1015.9
20200705190344 91 269 0.0 0.0 0.00 0.00 0.00 53 1016.0
20200705185828 91 269 0.0 0.0 0.00 0.00 0.00 55 1015.9
20200705185336 90 269 0.0 0.0 0.00 0.00 0.00 53 1016.0
20200705184844 90 242 0.0 0.0 0.00 0.00 0.00 53 1016.0
20200705184328 90 250 0.0 0.0 0.00 0.00 0.00 53 1016.0
20200705183834 90 250 0.0 0.0 0.00 0.00 0.00 58 1016.1
20200705183343 90 76 0.0 0.0 0.00 0.00 0.00 53 1016.2
20200705182831 90 124 0.0 0.0 0.00 0.00 0.00 52 1016.2
20200705182334 90 222 0.0 0.0 0.00 0.00 0.00 55 1016.3
20200705181841 90 221 0.0 0.0 0.00 0.00 0.00 55 1016.3
20200705181327 90 49 0.0 0.0 0.00 0.00 0.00 53 1016.3
20200705180836 90 45 0.0 0.0 0.00 0.00 0.00 59 1016.4
20200705180346 90 45 0.0 0.0 0.00 0.00 0.00 57 1016.4
20200705175835 90 46 0.0 0.0 0.00 0.00 0.00 60 1016.4
20200705175341 89 46 0.0 0.0 0.00 0.00 0.00 61 1016.4
20200705174828 89 31 0.0 0.0 0.00 0.00 0.00 60 1016.4
20200705174341 88 360 0.0 0.0 0.00 0.00 0.00 62 1016.5
20200705173827 88 360 0.0 0.0 0.00 0.00 0.00 61 1016.6
20200705173337 88 5 0.0 0.0 0.00 0.00 0.00 65 1016.6
20200705172848 88 5 0.0 0.0 0.00 0.00 0.00 66 1016.6
20200705172333 87 5 0.0 0.0 0.00 0.00 0.00 66 1016.6
20200705171840 87 355 0.0 0.0 0.00 0.00 0.00 64 1016.6
20200705171331 87 355 0.0 0.0 0.00 0.00 0.00 62 1016.6
20200705170836 88 355 0.0 0.0 0.00 0.00 0.00 65 1016.7
20200705170343 89 355 0.0 0.0 0.00 0.00 0.00 63 1016.6
20200705165832 90 351 0.0 0.0 0.00 0.00 0.00 61 1016.6
20200705165339 90 322 0.0 0.0 0.00 0.00 0.00 62 1016.6
20200705164826 90 322 0.0 0.0 0.00 0.00 0.00 61 1016.8
20200705164333 90 322 0.0 0.0 0.00 0.00 0.00 60 1016.8
20200705163840 90 323 0.0 0.0 0.00 0.00 0.00 60 1016.9
20200705163329 89 323 0.0 0.0 0.00 0.00 0.00 59 1017.0
20200705162835 89 323 0.0 0.0 0.00 0.00 0.00 59 1017.1
20200705162346 89 323 0.0 0.0 0.00 0.00 0.00 58 1017.1
20200705161828 89 323 0.0 0.0 0.00 0.00 0.00 60 1017.1
20200705161336 88 323 0.0 0.0 0.00 0.00 0.00 63 1017.1
20200705160848 88 323 0.0 0.0 0.00 0.00 0.00 60 1017.1